[[{"header":{"parameterUnit":"m.s-1","parameterCategory":1,"la1":30.2991,"la2":30.254,"lo1":-89.0895,"lo2":-89.0444,"dy":0.0017,"dx":0.0017,"nx":28,"ny":28,"refTime":"2024-05-13T09:00:00:Z","depth":0,"parameterNumber":2,"parameterNumberName":"U-component_of_WINDS"},"data":[0,0,0,0,0,0,0,0,0,0,0,0,0,0,0,0,0,0,0,0,0,0,0,0,0,0,0,0,0,0,0,0,0,0,0,0,0,0,0,0,0,0,0,0,0,0,0,0,0,0,0,0,0,0,0,0,0,0,2.6099,2.61,0,2.6175,2.6176,2.6177,2.6193,2.6193,2.6192,2.6192,2.6274,2.6277,2.6279,0,0,0,0,0,0,0,0,0,0,0,0,0,2.5976,2.5978,2.6099,2.61,2.6101,2.6175,2.6176,2.6177,2.6194,2.6193,2.6192,2.6192,2.6273,2.6276,2.628,0,0,0,0,0,0,0,0,0,0,0,0,0,2.6039,2.5979,2.6099,2.6118,2.6121,2.6175,2.6176,2.6177,2.6194,2.6193,2.6192,2.6191,2.6272,2.6276,2.628,2.6322,0,0,2.6293,2.6294,0,0,0,0,0,0,0,0,2.6035,2.6043,2.6115,2.6117,2.612,2.6174,2.6163,2.6226,2.6194,2.6166,2.6192,2.6191,2.6242,2.6248,2.6264,2.6326,2.6329,2.6293,2.6295,2.6297,2.6298,0,0,0,0,0,0,0,2.6031,2.604,2.6129,2.6116,2.6119,2.6125,2.6133,2.6175,2.6208,2.6169,2.617,2.6178,2.6243,2.626,2.6266,2.633,2.6293,2.6296,2.6299,2.6301,2.6432,2.6433,0,0,0,0,0,0,2.6022,2.6036,2.6127,2.6132,2.6074,2.6128,2.6137,2.6157,2.6207,2.6214,2.6179,2.6179,2.6254,2.6262,2.6269,2.6322,2.6297,2.6301,2.6303,2.6431,2.6432,2.6434,0,0,0,0,0,0,2.6019,2.603,2.6124,2.6084,2.6097,2.6131,2.6154,2.6159,2.6177,2.6215,2.6222,2.619,2.6254,2.6264,2.6309,2.6325,2.6303,2.6306,2.643,2.6432,2.6433,2.6427,0,0,0,0,0,0,2.6016,2.6029,2.6043,2.6084,2.6099,2.616,2.6155,2.6161,2.6183,2.6183,2.6227,2.6234,2.6254,2.6303,2.6313,2.633,2.631,2.6429,2.6431,2.6433,2.6426,2.6428,2.643,0,0,0,0,0,2.6011,2.6039,2.6044,2.6055,2.6117,2.6161,2.6169,2.619,2.6184,2.62,2.6225,2.6233,2.6322,2.6307,2.6319,2.6338,2.6428,2.643,2.6432,2.6425,2.6428,2.643,0,0,0,0,0,0,2.6,2.6045,2.605,2.6092,2.6122,2.6163,2.6183,2.6192,2.6225,2.6225,2.6251,2.6261,2.6304,2.6326,2.6308,2.6382,2.6375,2.638,2.6365,2.6369,2.6371,2.6364,2.6313,0,0,0,0,0,2.6002,2.6032,2.607,2.6104,2.6118,2.6149,2.6168,2.6182,2.6215,2.6228,2.6256,2.629,2.6326,2.6349,2.6384,2.643,2.6441,2.645,2.6452,2.6453,2.6457,2.6484,2.6489,2.6441,2.6441,2.6441,0,0,2.6007,2.6035,2.6053,2.6102,2.6127,2.6159,2.6159,2.6193,2.6217,2.6234,2.6277,2.63,2.6339,2.6385,2.6407,2.6405,2.6473,2.6456,2.6457,2.646,2.6487,2.6492,2.6496,2.6443,2.6443,2.6443,0,0,2.6032,2.6056,2.6087,2.6112,2.615,2.617,2.6178,2.6218,2.6233,2.6277,2.6291,2.6322,2.6383,2.6411,2.6433,2.6472,2.6481,2.6483,2.6494,2.6521,2.6525,2.6528,2.6542,2.6547,2.6487,2.6487,2.6487,0,2.6034,2.608,2.6102,2.6135,2.6157,2.6173,2.6206,2.623,2.6278,2.6294,2.6291,2.6368,2.6396,2.645,2.6459,2.6477,2.6488,2.6477,2.6522,2.6526,2.6529,2.6543,2.6548,2.6487,2.6487,2.6487,2.6487,0,2.6081,2.6114,2.6135,2.6179,2.6204,2.6237,2.6265,2.6289,2.6301,2.6323,2.6369,2.6404,2.6446,2.6461,2.6473,2.6517,2.6514,2.6516,2.651,2.6533,2.6547,2.6552,2.6487,2.6487,2.6487,2.6487,0,0,2.6098,2.6156,2.6163,2.6184,2.6228,2.6255,2.629,2.6331,2.6351,2.6385,2.6416,2.6468,2.6471,2.6496,2.6513,2.6537,2.6566,2.6536,2.6538,2.654,2.6618,2.6615,2.662,2.6573,2.6574,2.6575,2.6614,0,2.6128,2.6188,2.621,2.6261,2.6292,2.631,2.6341,2.6373,2.6395,2.6427,2.6453,2.6489,2.649,2.6505,2.653,2.6557,2.6582,2.6555,2.6604,2.6605,2.6591,2.6627,2.6624,2.6659,2.662,2.6621,2.6621,0,2.617,2.6203,2.6256,2.6298,2.6312,2.6339,2.638,2.641,2.6448,2.6462,2.6492,2.6507,2.6548,2.654,2.6597,2.6578,2.66,2.6617,2.6619,2.6623,2.6613,2.6632,2.667,2.6675,2.663,2.6629,2.6629,0,2.6176,2.6235,2.6275,2.6292,2.6342,2.6361,2.6384,2.642,2.6444,2.6481,2.6497,2.6538,2.6561,2.6594,2.6621,2.6613,2.6676,2.667,2.669,2.669,2.6701,2.67,2.6743,2.6717,2.6717,2.6717,2.6717,0,2.6207,2.6239,2.6278,2.6302,2.634,2.6367,2.6404,2.6428,2.6461,2.6492,2.6511,2.654,2.6575,2.661,2.6633,2.6677,2.6687,2.6701,2.6707,2.6699,2.6697,2.6712,2.671,2.6718,2.6718,2.6718,2.6718,0,2.6219,2.6247,2.6291,2.6336,2.6348,2.6373,2.6412,2.6438,2.6462,2.6501,2.6512,2.6551,2.6593,2.6624,2.6679,2.6694,2.6741,2.6747,2.6727,2.673,2.6748,2.6746,2.6801,2.681,2.6779,2.678,2.678,0,2.6236,2.6261,2.6308,2.6329,2.6351,2.6385,2.641,2.6439,2.6464,2.651,2.6531,2.6574,2.661,2.6677,2.6711,2.6754,2.6761,2.6777,2.6767,2.6759,2.676,2.6758,2.6761,2.6778,2.6778,2.6778,2.6778,0,2.6262,2.6275,2.6309,2.6348,2.6376,2.6409,2.6442,2.6459,2.6495,2.6522,2.6565,2.6592,2.6649,2.6692,2.6739,2.6764,2.6778,2.6782,2.6789,2.678,2.6767,2.6774,2.673,2.678,2.678,2.678,2.678,2.678,2.6277,2.6301,2.6338,2.6375,2.6403,2.6434,2.646,2.6488,2.6523,2.657,2.6586,2.663,2.6671,2.6735,2.6761,2.6798,2.6798,2.6808,2.681,2.6812,2.6811,2.6763,2.6807,2.6807,2.6807,2.6807,2.6807,0,2.6304,2.6329,2.6364,2.6409,2.6439,2.6449,2.6487,2.6512,2.655,2.6586,2.6621,2.6671,2.6714,2.6752,2.6797,2.6819,2.6827,2.683,2.6828,2.6834,2.6808,2.6797,2.6823,2.6823,2.6823,2.6823,2.6823,2.6823,2.6322,2.6362,2.638,2.6436,2.6462,2.6503,2.6524,2.6554,2.6583,2.6637,2.6672,2.6697,2.6735,2.6783,2.6824,2.6834,2.685,2.6851,2.6863,2.6838,2.6836,2.6834,2.6824,2.6855,2.6855,2.6886,2.6886,2.6887]},{"header":{"parameterUnit":"m.s-1","parameterCategory":1,"la1":30.2991,"la2":30.254,"lo1":-89.0895,"lo2":-89.0444,"dy":0.0017,"dx":0.0017,"nx":28,"ny":28,"refTime":"2024-05-13T09:00:00:Z","depth":0,"parameterNumber":3,"parameterNumberName":"V-component_of_WINDS"},"data":[0,0,0,0,0,0,0,0,0,0,0,0,0,0,0,0,0,0,0,0,0,0,0,0,0,0,0,0,0,0,0,0,0,0,0,0,0,0,0,0,0,0,0,0,0,0,0,0,0,0,0,0,0,0,0,0,0,0,1.9217,1.9218,0,1.9332,1.9333,1.9335,1.9386,1.9385,1.9385,1.9385,1.9497,1.95,1.9503,0,0,0,0,0,0,0,0,0,0,0,0,0,1.9034,1.9037,1.9217,1.9218,1.922,1.9332,1.9333,1.9335,1.9386,1.9385,1.9385,1.9385,1.9496,1.95,1.9503,0,0,0,0,0,0,0,0,0,0,0,0,0,1.9128,1.9038,1.9217,1.9259,1.9264,1.9332,1.9333,1.9335,1.9386,1.9385,1.9385,1.9385,1.9495,1.9499,1.9504,1.9537,0,0,1.9518,1.952,0,0,0,0,0,0,0,0,1.9122,1.9134,1.9251,1.9256,1.9262,1.9344,1.931,1.9403,1.9386,1.9339,1.9385,1.9385,1.9446,1.9455,1.9476,1.9542,1.9547,1.9519,1.9521,1.9523,1.9525,0,0,0,0,0,0,0,1.9116,1.913,1.9262,1.9253,1.9259,1.927,1.9283,1.9328,1.9392,1.9343,1.9347,1.936,1.9449,1.9472,1.9479,1.9548,1.9518,1.9523,1.9525,1.9527,1.9644,1.9645,0,0,0,0,0,0,1.9103,1.9124,1.9259,1.9266,1.919,1.9273,1.9288,1.9318,1.9392,1.9403,1.936,1.9362,1.9464,1.9474,1.9484,1.9526,1.9523,1.9528,1.953,1.9644,1.9645,1.9645,0,0,0,0,0,0,1.9099,1.9115,1.9254,1.9196,1.9215,1.9277,1.931,1.932,1.9344,1.9405,1.9416,1.9373,1.9464,1.9477,1.9523,1.9531,1.953,1.9534,1.9644,1.9644,1.9645,1.9612,0,0,0,0,0,0,1.9094,1.9113,1.9128,1.9196,1.9218,1.9294,1.9311,1.9323,1.9352,1.9356,1.9419,1.943,1.9465,1.9516,1.9528,1.9537,1.9538,1.9643,1.9644,1.9645,1.9613,1.9612,1.961,0,0,0,0,0,1.9087,1.9113,1.9129,1.9145,1.9238,1.9294,1.9306,1.9348,1.9353,1.9367,1.9406,1.9428,1.9528,1.952,1.9534,1.9545,1.9643,1.9644,1.9644,1.9613,1.9612,1.961,0,0,0,0,0,0,1.9043,1.9123,1.9141,1.9191,1.9235,1.9303,1.9323,1.9345,1.9388,1.939,1.9438,1.9452,1.9493,1.9524,1.9514,1.958,1.9587,1.9591,1.9559,1.9558,1.9556,1.9548,1.9541,0,0,0,0,0,1.904,1.9081,1.9148,1.9185,1.9206,1.926,1.9286,1.9315,1.9362,1.9381,1.9424,1.9467,1.9508,1.9535,1.9576,1.9617,1.9631,1.9631,1.963,1.9628,1.9631,1.9653,1.9654,1.9647,1.9647,1.9647,0,0,1.9032,1.9081,1.9104,1.9177,1.9215,1.9255,1.9276,1.9317,1.9346,1.9387,1.9434,1.9466,1.9517,1.9561,1.9582,1.9587,1.9636,1.9629,1.9628,1.9631,1.9654,1.9655,1.9655,1.9648,1.9648,1.9648,0,0,1.9039,1.908,1.9115,1.9153,1.9211,1.9246,1.9254,1.9318,1.9342,1.939,1.9421,1.9454,1.9525,1.956,1.9587,1.9605,1.9626,1.9616,1.961,1.9631,1.9632,1.9633,1.9638,1.964,1.9618,1.9618,1.9618,0,1.9021,1.9085,1.913,1.917,1.92,1.924,1.9274,1.9308,1.9375,1.9394,1.94,1.9488,1.9525,1.9577,1.9581,1.9602,1.9611,1.961,1.9629,1.963,1.9631,1.9637,1.9639,1.9617,1.9617,1.9617,1.9617,0,1.906,1.9103,1.9124,1.919,1.9222,1.9259,1.9308,1.9335,1.9359,1.9393,1.944,1.9486,1.9537,1.9551,1.9575,1.9606,1.9607,1.962,1.9628,1.9629,1.9636,1.9638,1.9615,1.9615,1.9616,1.9616,0,0,1.9044,1.9134,1.9141,1.9171,1.9236,1.9269,1.9306,1.9358,1.938,1.9424,1.9455,1.9513,1.9525,1.9555,1.9583,1.9601,1.9611,1.9612,1.9614,1.961,1.9646,1.9637,1.9639,1.9625,1.9626,1.9626,1.9642,0,1.9059,1.9131,1.9172,1.9225,1.9264,1.9301,1.9333,1.9375,1.9407,1.9443,1.9477,1.9518,1.9531,1.9549,1.9569,1.9606,1.9619,1.9605,1.9653,1.9654,1.964,1.9642,1.9633,1.9646,1.9645,1.9645,1.9645,0,1.9088,1.9133,1.9191,1.9251,1.9269,1.9297,1.9347,1.9381,1.9429,1.9451,1.9484,1.9512,1.955,1.9554,1.9606,1.9596,1.9617,1.9638,1.9639,1.9646,1.965,1.9649,1.9651,1.9653,1.965,1.9649,1.9649,0,1.907,1.9145,1.9189,1.9213,1.9285,1.9303,1.9334,1.9381,1.9409,1.9451,1.9469,1.9515,1.9539,1.9572,1.9611,1.9611,1.9658,1.9666,1.9676,1.9675,1.9685,1.9684,1.9691,1.9698,1.9698,1.9698,1.9698,0,1.9083,1.9117,1.9182,1.9209,1.9247,1.9292,1.9327,1.936,1.9402,1.9434,1.9467,1.9496,1.9545,1.9579,1.9609,1.9647,1.9657,1.9675,1.9682,1.9672,1.967,1.9687,1.9687,1.9699,1.9698,1.9698,1.9698,0,1.907,1.9115,1.9165,1.9229,1.9245,1.927,1.9324,1.935,1.9383,1.9423,1.9435,1.9487,1.9528,1.957,1.9625,1.9645,1.9682,1.9692,1.9667,1.9671,1.9679,1.9677,1.9697,1.9702,1.9705,1.9705,1.9705,0,1.9076,1.9103,1.9169,1.9194,1.9224,1.9264,1.9293,1.9337,1.9365,1.942,1.9439,1.9484,1.9523,1.9587,1.9628,1.967,1.9681,1.9685,1.9688,1.9676,1.9681,1.9679,1.9682,1.9684,1.9684,1.9684,1.9684,0,1.9081,1.9102,1.9144,1.9192,1.9226,1.9266,1.9307,1.9325,1.9376,1.9405,1.945,1.9479,1.9537,1.958,1.9627,1.9655,1.9677,1.9682,1.9687,1.9677,1.9661,1.967,1.9664,1.9682,1.9682,1.9682,1.9682,1.9682,1.9078,1.9103,1.9154,1.9199,1.9234,1.9271,1.9299,1.9336,1.9374,1.9426,1.9449,1.9493,1.9537,1.9603,1.9631,1.9664,1.967,1.9676,1.9678,1.9679,1.9677,1.9655,1.9673,1.9673,1.9673,1.9673,1.9673,0,1.9085,1.9119,1.916,1.9217,1.9251,1.927,1.9316,1.9343,1.9382,1.9423,1.946,1.9509,1.9551,1.9595,1.9638,1.9657,1.9668,1.9667,1.9666,1.9672,1.9669,1.9661,1.9657,1.9657,1.9657,1.9657,1.9657,1.9657,1.9093,1.9137,1.9163,1.9224,1.9257,1.9303,1.9327,1.936,1.9393,1.9448,1.9483,1.9512,1.9553,1.96,1.9638,1.965,1.9664,1.966,1.9674,1.9671,1.9672,1.9673,1.9666,1.9663,1.9663,1.9674,1.9674,1.9674]}]]